Dewpoint
-0 -5 -5 -5 -4 -4 -5 -4 -4 -4 -5 -6 -7 -9 -13 -18 -19 -17 -13 -11 -10 -8 -4 -2 -2 -2 -3 6 9 14 14 16 16 14 12 12 14 14 14 15 14 14 15 15 17
1 -1 -5 -5 -5 -5 -5 -5 -4 -4 -5 -6 -6 -8 -10 -14 -18 -17 -13 -13 -12 -13 -8 -6 -3 0 2 9 12 13 15 15 13 12 11 12 13 13 14 14 15 15 15 15 16
-0 0 -1 -6 -5 -5 -4 -5 -5 -4 -5 -6 -6 -7 -8 -11 -16 -17 -13 -13 -12 -15 -9 -9 -9 -4 -0 12 14 14 14 12 12 11 11 13 13 13 14 15 14 16 16 16 16
0 -0 -0 -2 -6 -6 -5 -5 -5 -5 -5 -6 -6 -6 -7 -9 -15 -8 -9 -10 -11 -11 -10 -10 -9 -3 -3 6 12 11 10 11 10 9 11 11 12 13 13 12 11 14 14 16 16
1 -0 -1 -1 -4 -6 -6 -6 -5 -5 -5 -5 -6 -6 -7 -8 -16 -8 -8 -9 -11 -13 -13 -12 -12 -5 -3 -2 2 11 10 9 10 9 9 10 12 14 15 13 12 14 15 16 16
1 0 -1 -1 -2 -5 -6 -5 -4 -5 -5 -5 -5 -6 -7 -4 -17 -18 -10 -10 -11 -11 -15 -15 -7 -6 -6 -3 -0 7 9 9 9 9 10 14 15 13 15 14 14 15 16 16 16
1 1 -0 -1 -2 -4 -6 -5 -4 -4 -5 -4 -5 -6 -7 -12 -14 -8 -10 -11 -10 -9 -10 -8 -5 -4 -5 -3 -2 1 7 8 10 10 11 13 11 14 15 14 14 15 16 16 16
1 1 -0 -2 -2 -4 -6 -5 -5 -4 -4 -3 -4 -6 -9 -14 -12 -7 -6 -11 -11 -9 -9 -10 -10 -9 -7 -4 1 3 3 7 6 10 10 8 11 14 15 14 15 14 15 15 15
1 -0 -1 -2 -3 -4 -6 -5 -5 -4 -3 -3 -5 -5 -6 -11 -12 -12 -8 -10 -9 -10 -9 -10 -10 -7 -4 1 4 3 5 3 3 9 10 10 9 14 15 15 15 15 14 14 14
0 -1 -2 -4 -5 -6 -6 -5 -4 -4 -3 -3 -5 -2 -10 -8 -6 -8 -7 -8 -5 -9 -10 -10 -8 -5 -4 -2 5 4 5 4 4 3 9 11 8 12 14 15 15 15 15 15 14
-0 -1 -4 -7 -7 -7 -7 -5 2 4 -0 -6 -7 -7 -8 -7 -6 -4 -7 -6 -5 -8 -10 -10 -7 -4 -4 -2 -0 1 3 4 3 4 6 9 9 12 12 15 15 15 16 15 15
-1 -2 -7 -8 -7 -5 -3 -4 2 3 2 -1 -0 0 -4 -2 -1 -6 -4 -4 -8 -9 -11 -10 -7 -7 -5 -4 -2 0 2 2 2 4 5 6 11 11 11 12 11 12 15 15 14
-1 -6 -8 -5 -3 -3 -1 4 4 3 3 0 -2 -3 -2 -4 -2 -6 -5 -5 -10 -10 -11 -9 -9 -9 -8 -7 -5 -4 -0 1 2 5 4 5 8 11 11 10 11 11 11 13 14
-2 -6 -5 -2 -3 0 4 4 3 2 0 -1 0 -3 -3 -4 -5 -6 -6 -9 -10 -9 -11 -10 -11 -10 -8 -7 -6 -3 -5 -0 3 3 5 5 6 8 11 11 10 10 11 11 11
-3 -5 -2 1 -0 0 3 3 3 2 -7 -8 -3 -3 -3 -6 -7 -6 -6 -10 -9 -11 -12 -11 -9 -8 -8 -8 -6 -5 -4 0 1 3 5 6 6 5 10 11 11 10 10 9 8
-5 -3 2 2 1 -0 2 3 3 0 -3 -3 -5 -2 -4 -6 -6 -8 -8 -10 -11 -9 -10 -12 -11 -10 -10 -10 -9 -8 -3 0 5 3 4 6 6 6 7 8 6 9 10 9 8
-4 1 4 3 2 1 3 2 2 4 -2 -3 -5 -7 -7 -6 -6 -8 -8 -9 -8 -7 -7 -9 -9 -10 -11 -11 -11 -2 1 3 4 6 5 8 9 6 3 6 5 7 7 7 7
2 3 3 3 2 4 2 2 5 1 2 -2 -1 -5 -6 -9 -8 -8 -8 -7 -10 -9 -8 -7 -6 -9 -11 -10 -9 -4 -0 3 5 7 6 9 8 5 4 4 4 4 4 5 7
5 3 6 1 3 4 3 6 4 4 1 2 1 -7 -7 -9 -9 -8 -8 -8 -9 -10 -8 -6 -7 -10 -11 -12 -10 -6 -0 -1 3 3 7 6 8 5 4 3 3 4 6 6 5
5 7 6 2 5 4 4 5 4 2 1 1 3 0 -1 -9 -9 -8 -7 -9 -10 -11 -12 -10 -7 -10 -10 -11 -7 -4 -3 0 -0 3 3 4 10 8 4 4 4 5 6 6 5
5 7 6 4 5 4 5 6 4 2 -0 2 1 2 1 -0 -9 -7 -7 -9 -10 -11 -12 -11 -10 -9 -11 -10 -10 -4 -2 -2 -1 0 3 8 9 6 6 4 6 7 5 4 5
6 8 6 4 4 5 6 4 2 1 1 1 1 1 1 -1 -5 -8 -7 -8 -11 -12 -11 -12 -10 -9 -10 -12 -10 -7 -3 -2 0 -0 3 7 5 4 5 5 6 6 6 5 5
7 7 7 5 5 5 3 3 3 3 3 1 3 3 3 -1 1 -2 -4 -9 -10 -12 -11 -11 -10 -8 -9 -11 -8 -6 -5 -4 -4 -3 2 3 2 3 6 6 6 7 10 9 8
8 9 6 6 4 4 6 8 6 5 5 2 5 4 6 1 -0 2 5 -6 -10 -12 -11 -10 -12 -10 -8 -10 -7 -7 -6 -6 -5 -3 -2 -1 -4 3 6 7 7 6 11 13 11
9 9 8 7 6 7 8 9 10 10 5 5 3 4 6 6 8 8 7 7 -7 -0 -4 -13 -11 -11 -12 -10 -8 -9 -9 -7 -7 -6 -4 -5 -1 -1 4 6 6 5 10 13 14
7 7 7 8 7 9 8 10 10 8 8 6 3 6 7 8 8 8 8 7 7 6 -10 -12 -9 -11 -10 -7 -6 -6 -6 -7 -7 -7 -6 -3 0 0 1 5 5 3 10 13 14
0 3 5 4 6 10 9 9 9 8 8 7 5 8 8 7 8 7 7 6 6 7 -6 -10 -7 -7 -8 -6 -6 -7 -7 -6 5 11 3 -2 -3 -2 3 5 4 4 3 4 11
Wind_Speed
13 12 12 11 10 10 9 9 9 8 8 8 9 9 11 12 13 15 15 6 4 6 6 7 7 9 3 8 5 5 3 3 3 1 3 18 8 12 4 19 4 14 11 22 33
12 12 12 12 11 10 9 9 9 9 9 8 9 10 11 12 13 17 8 9 8 9 7 7 8 11 2 4 4 3 2 6 5 2 5 8 19 13 6 12 3 9 12 33 34
12 12 12 12 12 11 10 9 10 10 9 9 9 10 11 11 12 6 5 7 9 13 6 5 7 7 2 5 4 4 5 6 6 11 9 12 13 9 18 5 11 24 35 37 36
13 13 13 13 13 12 11 10 10 11 10 9 9 9 9 7 4 3 4 1 7 10 6 4 1 4 3 3 7 4 10 9 3 5 16 9 14 7 15 4 18 20 30 39 38
13 13 13 14 14 13 13 12 11 11 11 10 10 10 9 6 12 2 1 0 2 4 5 4 1 1 1 3 7 5 8 9 3 9 19 17 7 4 2 14 20 23 30 37 38
14 14 14 14 14 14 13 13 12 12 11 10 10 10 8 4 7 13 5 2 4 5 4 3 3 4 7 7 2 8 18 9 7 17 17 11 5 1 7 20 25 24 33 37 37
13 14 14 14 14 14 14 13 12 11 11 10 11 11 13 19 7 9 13 8 6 5 6 4 4 6 11 6 4 15 6 5 6 12 4 22 2 6 19 24 25 27 33 32 33
14 13 14 15 15 15 14 14 13 11 10 10 10 10 11 8 12 16 11 13 9 8 9 5 6 11 4 8 8 5 5 4 5 6 7 4 6 4 21 25 24 27 27 33 35
14 14 14 14 15 16 14 14 12 11 9 9 8 6 12 7 14 17 16 13 8 10 8 6 6 3 1 3 4 6 2 2 4 12 6 6 2 5 22 20 23 24 24 27 32
15 14 14 14 15 15 13 12 9 8 8 8 11 7 8 1 6 11 18 14 10 7 4 4 4 3 3 5 2 3 4 7 5 4 7 8 3 9 18 24 22 23 22 24 30
16 15 15 13 14 15 11 6 3 2 6 9 3 8 13 7 9 7 18 16 11 5 2 2 3 6 9 6 5 2 3 7 13 10 6 9 4 10 18 21 17 21 23 23 25
16 16 14 13 12 12 10 4 5 4 11 15 22 30 30 27 9 7 11 12 6 5 2 3 8 9 7 3 4 3 6 10 12 12 5 4 2 4 11 11 20 24 27 30 25
17 17 13 11 12 9 4 4 5 7 4 12 18 19 22 7 12 14 11 17 4 6 5 7 4 7 2 4 4 3 5 8 9 3 5 5 5 2 4 7 17 17 22 29 34
17 17 14 11 7 3 4 7 9 1 4 7 4 9 15 12 5 17 12 18 2 10 7 5 5 5 1 6 5 6 4 10 7 4 3 4 4 5 6 10 7 14 18 24 32
17 16 14 12 8 4 1 7 2 2 3 2 4 2 12 14 3 12 17 19 8 4 7 8 6 4 5 13 6 11 2 5 4 5 4 4 4 7 2 7 10 11 26 27 31
17 17 15 11 9 4 3 3 6 5 5 7 1 0 3 3 4 3 10 14 11 4 2 8 1 6 9 7 9 7 2 7 5 4 3 1 4 6 4 7 6 12 28 32 32
17 17 13 7 1 7 3 4 5 3 6 6 3 0 2 1 3 2 5 5 6 5 5 5 5 4 5 5 2 4 6 2 3 4 5 2 2 10 5 7 7 10 30 30 31
15 11 7 3 8 7 7 5 2 4 6 6 5 3 6 7 3 4 4 3 2 5 3 6 6 7 4 9 8 7 9 6 5 4 5 2 5 6 5 7 9 18 21 26 32
10 5 3 3 11 9 6 3 7 5 4 8 10 4 3 2 4 4 7 7 8 9 5 5 6 4 5 6 9 4 4 4 8 4 3 3 7 10 3 1 8 13 20 26 29
7 3 4 6 12 10 5 5 5 5 6 4 3 7 7 4 5 7 7 6 6 10 7 5 2 2 3 4 3 7 4 3 3 4 3 4 5 6 4 7 8 3 19 27 28
4 2 3 12 11 3 3 6 5 9 9 4 4 5 7 5 8 6 7 6 9 9 9 7 4 6 4 1 5 2 0 6 5 4 6 2 6 7 7 7 8 8 15 24 28
2 2 7 15 3 2 2 5 4 8 19 7 5 8 6 5 6 8 9 9 18 12 10 8 5 5 11 6 2 4 8 5 6 5 2 4 7 5 10 8 10 18 21 19 22
3 2 11 13 1 2 4 5 8 5 5 4 3 4 4 6 3 5 5 15 26 9 11 8 1 2 10 7 3 3 5 5 5 4 7 6 7 2 5 8 14 14 16 21 23
1 2 4 12 6 3 2 5 4 6 7 6 6 4 3 5 3 5 4 6 18 18 16 16 5 8 8 8 4 1 2 5 6 3 4 7 5 6 9 10 10 15 20 21 26
1 0 2 3 5 4 3 4 3 4 3 4 2 1 2 5 4 3 3 6 2 2 9 9 8 7 8 5 4 3 2 6 5 7 7 12 9 9 13 13 18 17 19 24 26
2 2 1 4 6 3 5 5 2 3 3 4 4 9 6 6 1 4 3 1 1 5 5 2 5 8 6 6 7 4 3 5 5 1 7 4 8 8 14 6 14 22 18 27 32
3 4 3 4 1 1 4 4 3 4 7 11 8 7 6 5 4 13 10 9 4 3 1 5 7 5 7 5 5 3 3 2 6 3 3 4 9 2 6 9 21 27 29 29 37
Wind_Direction
354 352 349 348 343 339 334 326 320 317 312 310 309 303 290 282 278 277 270 255 273 266 278 297 327 332 335 168 171 134 78 142 244 278 61 137 117 152 197 147 173 183 187 175 173
350 347 346 342 340 336 330 322 315 310 308 309 310 309 304 297 284 262 271 264 247 262 263 300 326 343 104 123 162 97 116 219 201 208 102 127 134 145 134 168 70 164 163 164 173
342 344 341 337 336 334 329 320 312 307 303 301 306 309 312 312 305 266 256 241 239 237 243 301 328 337 61 155 178 163 215 188 224 219 127 141 146 160 144 208 188 153 152 169 176
336 336 336 334 331 329 328 320 314 308 303 299 301 306 309 309 241 125 152 129 217 219 215 273 303 346 6 196 202 250 240 242 122 258 159 180 153 166 181 225 179 169 172 172 178
332 331 331 330 329 326 326 323 315 306 298 297 297 300 307 273 249 195 139 41 297 239 236 216 286 174 293 291 307 202 274 256 258 135 143 142 142 140 153 148 156 161 173 177 182
329 328 326 325 324 322 322 320 313 303 296 292 290 293 290 264 247 229 222 213 292 331 260 209 142 286 279 241 197 248 235 226 184 150 147 132 151 173 150 150 152 167 174 186 189
328 327 324 322 319 318 317 315 310 302 293 288 285 287 274 251 236 204 210 206 234 267 295 275 279 306 323 316 327 287 170 109 175 165 147 125 295 242 155 159 160 169 182 189 197
326 326 323 319 316 315 316 310 305 298 287 283 282 289 262 273 243 222 219 220 234 255 277 260 294 293 232 306 314 337 74 136 183 155 162 141 239 257 165 159 173 185 191 197 198
325 323 322 318 315 314 316 309 303 292 283 277 277 275 264 251 244 219 215 221 250 248 266 270 284 242 353 59 349 7 215 230 300 195 151 203 229 192 185 182 186 187 194 204 208
324 323 322 320 315 313 318 312 300 283 277 271 255 291 258 19 5 224 210 221 263 262 285 212 187 95 49 72 239 17 2 317 277 252 189 200 226 182 191 196 194 187 191 201 209
323 324 324 321 315 317 324 330 323 295 262 231 217 255 274 278 315 216 208 218 227 257 206 60 116 211 225 153 198 300 259 278 284 287 152 208 178 193 199 206 192 198 186 189 207
325 324 323 318 312 314 320 356 50 4 301 275 262 263 262 272 291 247 211 194 168 199 144 15 219 221 127 186 235 228 288 289 291 281 154 128 106 171 194 216 212 197 187 193 192
326 325 323 315 308 304 331 73 9 317 252 283 246 248 250 235 223 258 214 198 148 173 198 171 257 137 165 279 300 280 229 282 252 244 51 90 344 327 200 246 229 221 216 214 218
326 324 322 320 301 306 121 16 348 171 29 273 237 248 207 194 259 232 213 183 198 193 146 221 236 191 153 255 134 288 216 262 256 110 181 42 244 282 237 228 224 216 220 233 240
323 320 316 310 288 270 232 356 106 142 340 264 230 307 179 166 167 200 208 199 157 186 123 230 159 160 195 238 141 242 72 235 234 81 98 356 82 268 97 257 248 228 230 244 252
320 316 309 298 276 233 247 54 128 45 256 323 162 62 140 212 184 147 166 197 220 168 176 228 210 155 207 261 194 270 263 36 28 94 38 7 109 280 200 212 249 223 234 243 250
322 310 306 284 183 174 157 130 48 143 335 317 340 41 187 320 228 69 139 147 164 145 245 340 272 247 176 263 12 116 69 317 350 34 212 44 54 240 221 215 205 210 238 236 240
322 312 306 259 197 167 137 56 153 238 255 300 296 240 162 153 232 169 130 220 292 105 129 165 309 176 184 186 202 186 163 157 190 178 245 84 236 257 196 184 236 221 237 243 240
331 329 9 188 180 163 148 90 217 225 314 335 327 51 322 249 145 157 195 199 208 174 166 144 266 275 186 167 144 214 191 187 99 9 74 244 288 302 359 92 224 220 214 221 237
354 29 68 140 156 142 85 231 238 235 341 345 349 21 9 270 176 160 197 206 213 182 153 206 291 264 307 150 145 164 170 80 22 120 226 278 275 235 290 311 304 274 190 214 227
5 91 114 145 152 136 164 230 274 275 324 322 332 261 241 249 198 192 208 260 194 192 165 156 112 285 21 162 181 4 198 57 116 127 159 206 262 215 237 236 250 268 236 208 213
60 61 160 162 79 61 182 207 282 282 293 244 233 207 245 295 266 194 208 221 198 151 162 196 158 222 231 259 289 178 218 159 140 219 183 165 265 218 223 234 218 254 243 221 217
18 80 171 186 183 244 283 265 245 258 259 229 270 207 252 279 308 224 219 238 231 153 169 173 201 25 334 347 35 200 198 129 113 90 193 157 258 241 276 274 258 276 248 202 201
43 91 150 220 255 178 290 276 287 287 279 216 236 224 319 281 258 297 314 281 204 192 191 145 136 159 196 210 175 174 144 129 115 121 175 218 256 262 241 233 255 233 221 208 202
37 198 172 244 272 194 163 294 283 290 273 290 259 124 321 282 299 359 266 302 44 56 150 144 186 170 224 201 217 232 187 152 156 208 172 260 199 236 224 218 219 221 218 202 202
345 352 289 275 278 220 172 239 246 294 265 278 235 330 348 230 255 285 283 323 240 334 142 297 208 167 224 183 179 192 228 215 212 187 260 127 245 222 254 210 163 202 191 204 213
294 279 281 270 261 126 224 244 273 314 262 244 278 324 253 196 190 258 245 289 289 294 140 147 136 125 220 196 148 358 253 198 76 35 273 194 242 309 228 207 228 206 204 211 219
Height
1506 1504 1502 1500 1498 1497 1495 1494 1493 1492 1492 1491 1490 1489 1487 1486 1485 1484 1483 1486 1486 1486 1488 1486 1486 1486 1484 1484 1486 1488 1499 1505 1500 1493 1487 1483 1488 1495 1494 1494 1495 1496 1495 1497 1504
1506 1504 1501 1499 1498 1496 1495 1494 1493 1492 1491 1490 1488 1487 1486 1484 1483 1482 1483 1482 1484 1485 1487 1486 1485 1484 1484 1485 1487 1488 1500 1494 1484 1483 1484 1485 1485 1490 1493 1495 1496 1494 1495 1499 1504
1504 1503 1501 1499 1497 1496 1495 1493 1492 1491 1490 1489 1488 1487 1485 1484 1482 1479 1479 1480 1481 1482 1485 1486 1485 1484 1485 1486 1488 1488 1493 1481 1478 1479 1484 1487 1487 1486 1489 1492 1490 1492 1493 1499 1503
1503 1501 1499 1498 1496 1494 1493 1491 1490 1488 1487 1487 1486 1485 1484 1484 1487 1478 1478 1478 1479 1480 1485 1485 1485 1484 1484 1486 1485 1487 1477 1478 1477 1477 1481 1484 1484 1485 1484 1484 1485 1491 1493 1496 1503
1502 1500 1498 1496 1494 1492 1490 1489 1487 1486 1486 1485 1485 1484 1484 1484 1478 1478 1477 1478 1478 1480 1482 1484 1485 1484 1486 1485 1482 1483 1476 1475 1476 1477 1477 1482 1483 1485 1485 1485 1488 1492 1496 1498 1503
1500 1498 1496 1494 1492 1490 1489 1488 1486 1485 1484 1483 1483 1483 1483 1484 1476 1475 1476 1477 1477 1479 1480 1482 1484 1485 1485 1484 1483 1477 1476 1472 1475 1476 1478 1481 1485 1484 1488 1489 1489 1492 1495 1498 1500
1499 1497 1495 1492 1490 1488 1487 1485 1484 1483 1482 1482 1481 1481 1480 1473 1473 1472 1473 1475 1476 1477 1480 1482 1483 1485 1483 1480 1477 1473 1475 1475 1478 1476 1478 1480 1487 1483 1485 1488 1490 1493 1494 1496 1500
1498 1496 1493 1491 1488 1487 1485 1483 1482 1481 1480 1480 1479 1479 1474 1470 1469 1470 1472 1473 1475 1476 1478 1480 1482 1482 1482 1480 1476 1476 1477 1491 1477 1477 1479 1481 1497 1481 1486 1486 1488 1491 1494 1494 1494
1496 1494 1491 1489 1486 1484 1483 1481 1480 1478 1478 1478 1478 1477 1469 1466 1465 1468 1470 1472 1473 1475 1476 1478 1480 1480 1481 1485 1491 1487 1497 1489 1482 1473 1475 1481 1487 1480 1484 1485 1484 1489 1491 1493 1496
1494 1492 1489 1487 1484 1482 1480 1478 1477 1476 1476 1477 1476 1479 1466 1466 1465 1466 1469 1471 1472 1472 1474 1476 1477 1482 1486 1494 1514 1503 1500 1491 1492 1475 1474 1478 1480 1479 1483 1482 1481 1488 1488 1490 1489
1493 1490 1487 1485 1482 1480 1479 1477 1479 1478 1475 1470 1470 1466 1463 1463 1464 1463 1467 1469 1471 1473 1477 1474 1483 1491 1484 1488 1487 1490 1495 1496 1479 1470 1473 1477 1479 1481 1479 1479 1484 1485 1486 1485 1484
1491 1488 1485 1483 1480 1479 1478 1478 1480 1482 1474 1466 1464 1462 1461 1464 1466 1461 1464 1468 1469 1476 1474 1481 1487 1475 1479 1481 1486 1489 1493 1491 1478 1465 1469 1475 1482 1479 1479 1478 1480 1480 1482 1482 1482
1488 1485 1483 1481 1478 1477 1478 1479 1480 1479 1476 1459 1456 1455 1456 1461 1460 1458 1461 1464 1467 1475 1476 1485 1476 1473 1478 1482 1488 1488 1492 1488 1487 1473 1470 1477 1489 1484 1479 1477 1478 1480 1480 1480 1476
1486 1483 1481 1478 1479 1476 1478 1478 1477 1477 1485 1462 1452 1446 1450 1455 1456 1454 1457 1462 1466 1472 1476 1477 1471 1474 1479 1483 1485 1496 1473 1479 1473 1481 1500 1483 1517 1492 1480 1474 1471 1474 1472 1473 1470
1484 1481 1479 1477 1476 1477 1479 1478 1476 1478 1504 1453 1449 1446 1445 1449 1450 1449 1453 1458 1464 1466 1472 1476 1472 1475 1481 1475 1477 1482 1469 1475 1473 1487 1492 1494 1507 1489 1481 1481 1473 1470 1468 1466 1464
1481 1478 1476 1476 1474 1476 1477 1478 1479 1493 1497 1457 1447 1448 1450 1446 1448 1449 1452 1456 1459 1464 1466 1468 1465 1467 1468 1463 1470 1467 1473 1480 1488 1497 1516 1503 1508 1500 1489 1476 1468 1465 1462 1462 1460
1478 1475 1473 1473 1474 1475 1477 1479 1496 1504 1465 1458 1453 1448 1450 1453 1450 1449 1453 1459 1468 1482 1481 1469 1467 1461 1462 1469 1468 1473 1491 1518 1517 1521 1524 1507 1512 1491 1465 1462 1460 1459 1455 1457 1457
1475 1472 1472 1471 1472 1475 1477 1483 1499 1477 1472 1453 1450 1447 1451 1449 1451 1452 1458 1466 1462 1467 1486 1489 1492 1463 1457 1463 1471 1477 1484 1512 1522 1531 1519 1504 1509 1480 1455 1455 1456 1453 1452 1452 1452
1472 1471 1470 1470 1472 1475 1479 1499 1490 1477 1463 1462 1452 1452 1453 1447 1450 1453 1460 1463 1458 1461 1477 1489 1484 1454 1451 1451 1457 1468 1484 1470 1508 1519 1517 1509 1491 1464 1452 1452 1450 1452 1447 1447 1447
1472 1470 1470 1471 1474 1476 1482 1491 1480 1469 1465 1462 1468 1462 1467 1454 1454 1457 1461 1447 1452 1449 1453 1465 1479 1454 1449 1448 1453 1460 1459 1485 1500 1521 1521 1513 1503 1492 1460 1453 1446 1444 1446 1445 1446
1471 1471 1472 1473 1476 1477 1488 1486 1473 1467 1466 1466 1465 1468 1460 1456 1452 1457 1452 1442 1438 1445 1448 1459 1470 1468 1454 1457 1460 1465 1470 1479 1486 1501 1519 1523 1504 1461 1456 1449 1447 1443 1441 1441 1442
1471 1473 1473 1475 1479 1481 1484 1477 1469 1464 1462 1463 1459 1457 1457 1450 1446 1449 1447 1437 1427 1435 1453 1453 1469 1481 1470 1450 1450 1452 1460 1468 1490 1499 1501 1502 1494 1447 1447 1445 1444 1440 1438 1439 1441
1472 1473 1475 1476 1482 1482 1475 1472 1467 1461 1458 1456 1454 1452 1450 1449 1448 1438 1433 1422 1421 1431 1441 1447 1470 1488 1479 1460 1450 1452 1453 1459 1470 1480 1497 1500 1484 1445 1446 1444 1442 1443 1442 1438 1440
1473 1475 1476 1476 1473 1474 1474 1469 1463 1456 1453 1452 1451 1448 1450 1446 1438 1437 1434 1418 1413 1419 1425 1432 1461 1467 1484 1467 1453 1452 1449 1455 1465 1485 1485 1481 1461 1446 1443 1442 1438 1439 1439 1440 1440
1473 1474 1474 1475 1472 1471 1473 1470 1464 1460 1452 1448 1449 1445 1447 1454 1441 1437 1433 1427 1414 1417 1422 1430 1453 1456 1451 1448 1445 1442 1443 1450 1455 1457 1468 1450 1458 1442 1435 1432 1431 1437 1439 1440 1440
1474 1474 1473 1471 1469 1469 1471 1466 1461 1456 1456 1449 1447 1442 1437 1447 1434 1439 1433 1428 1428 1421 1427 1430 1446 1450 1450 1446 1444 1445 1442 1441 1443 1446 1453 1453 1450 1428 1423 1428 1430 1434 1435 1437 1438
1474 1474 1474 1469 1468 1469 1467 1462 1458 1456 1449 1447 1442 1440 1438 1432 1427 1429 1427 1425 1425 1425 1428 1432 1444 1454 1462 1446 1445 1456 1440 1435 1446 1444 1444 1453 1436 1427 1424 1424 1424 1427 1430 1431 1433